Starlink 3115

operational
NORAD ID: 49447 Int'l Des: 2021-104 Owner: SPXS Country: US Constellation: starlink
LEOCIRCULAR

About Starlink 3115

Description loading...

Live Position

Loading 3D Globe...

Upcoming Passes

Altitude History

Altitude vs Time

uPlot chart will show altitude changes over time

Two-Line Element Set

1 49447U 21104AR 25352.94044187 .00000604 00000-0 56016-4 0 9992
2 49447 53.2165 221.6191 0001430 89.2739 270.8417 15.08837637226580
Epoch: Dec 18, 2025 • Age: 7 hours

Current Status

Altitude 540.8 km
Velocity 7.60 km/s
Sub-Earth Point 29.40°N, 80.67°E
Launch Date Nov 13, 2021
Age 4 years
Type internet

Technical Details

Classification Payload
Mass 290.00 kg
Dry Mass 270.00 kg
Total Mass 290.00 kg
Length 0.20 m
Diameter 2.80 m
Span 9.00 m
Shape Box + pan
Manufacturer SPXS
Bus Type Starlink
Phase Status In Orbit
Owner/State SPXS/US

Large Constellations

Loading constellations...